• In Deutschland
  • Länderverzeichnis
  • Für 7 Tage
  • Wassertemperatur
  • Satellitenkarten
  • Wetterkarte
  • Widgets
  • user-avatar
    Anmelden

    Stündliche Wetter Araras

    Heute, 22 Juli, Sonntag

    Zeit Temperatur Niederschläge Wind Luftdruck Luftfeuchtigkeit
    00:00 +18°C° 0 mm 3 m/S 709 mmHg 74%
    01:00 +18°C° 0 mm 3 m/S 709 mmHg 76%
    02:00 +17°C° 0 mm 3 m/S 709 mmHg 79%
    03:00 +17°C° 0 mm 3 m/S 709 mmHg 82%
    04:00 +17°C° 0 mm 3 m/S 709 mmHg 83%
    05:00 +16°C° 0 mm 2 m/S 709 mmHg 85%
    06:00 +16°C° 0 mm 2 m/S 709 mmHg 86%
    07:00 +18°C° 0 mm 2 m/S 710 mmHg 79%
    08:00 +19°C° 0 mm 3 m/S 710 mmHg 73%
    09:00 +21°C° 0 mm 3 m/S 711 mmHg 66%
    10:00 +24°C° 0 mm 3 m/S 711 mmHg 59%
    11:00 +26°C° 0 mm 3 m/S 712 mmHg 51%
    12:00 +28°C° 0 mm 3 m/S 712 mmHg 44%
    13:00 +28°C° 0 mm 3 m/S 711 mmHg 42%
    14:00 +29°C° 0 mm 2 m/S 711 mmHg 40%
    15:00 +29°C° 0 mm 2 m/S 710 mmHg 38%
    16:00 +27°C° 0 mm 2 m/S 710 mmHg 44%
    17:00 +26°C° 0 mm 2 m/S 710 mmHg 49%
    18:00 +24°C° 0 mm 2 m/S 710 mmHg 54%
    19:00 +23°C° 0 mm 2 m/S 710 mmHg 58%
    20:00 +21°C° 0 mm 2 m/S 711 mmHg 61%
    21:00 +20°C° 0 mm 2 m/S 711 mmHg 65%
    22:00 +20°C° 0 mm 2 m/S 711 mmHg 67%
    23:00 +19°C° 0 mm 2 m/S 711 mmHg 69%

    Morgen, 23 Juli, Montag

    Zeit Temperatur Niederschläge Wind Luftdruck Luftfeuchtigkeit
    00:00 +19°C° 0 mm 2 m/S 712 mmHg 71%
    01:00 +18°C° 0 mm 2 m/S 711 mmHg 72%
    02:00 +18°C° 0 mm 2 m/S 711 mmHg 73%
    03:00 +18°C° 0 mm 2 m/S 711 mmHg 74%
    04:00 +18°C° 0 mm 2 m/S 711 mmHg 75%
    05:00 +17°C° 0 mm 2 m/S 711 mmHg 75%
    06:00 +17°C° 0 mm 2 m/S 711 mmHg 76%
    07:00 +19°C° 0 mm 2 m/S 712 mmHg 71%
    08:00 +20°C° 0 mm 2 m/S 712 mmHg 66%
    09:00 +21°C° 0 mm 3 m/S 713 mmHg 62%
    10:00 +24°C° 0 mm 2 m/S 713 mmHg 55%
    11:00 +26°C° 0 mm 2 m/S 713 mmHg 48%
    12:00 +28°C° 0 mm 2 m/S 713 mmHg 41%
    13:00 +28°C° 0 mm 2 m/S 713 mmHg 39%
    14:00 +29°C° 0 mm 1 m/S 712 mmHg 37%
    15:00 +29°C° 0 mm 1 m/S 711 mmHg 35%
    16:00 +27°C° 0 mm 1 m/S 711 mmHg 39%
    17:00 +25°C° 0 mm 1 m/S 711 mmHg 44%
    18:00 +23°C° 0 mm 1 m/S 710 mmHg 48%
    19:00 +23°C° 0 mm 1 m/S 711 mmHg 51%
    20:00 +22°C° 0 mm 1 m/S 711 mmHg 54%
    21:00 +21°C° 0 mm 1 m/S 712 mmHg 58%
    22:00 +20°C° 0 mm 1 m/S 712 mmHg 60%
    23:00 +20°C° 0 mm 1 m/S 712 mmHg 62%

    übermorgen, 24 Juli, Dienstag

    Zeit Temperatur Niederschläge Wind Luftdruck Luftfeuchtigkeit
    00:00 +19°C° 0 mm 1 m/S 712 mmHg 63%
    01:00 +19°C° 0 mm 1 m/S 712 mmHg 65%
    02:00 +18°C° 0 mm 1 m/S 711 mmHg 66%
    03:00 +18°C° 0 mm 1 m/S 711 mmHg 67%
    04:00 +18°C° 0 mm 1 m/S 711 mmHg 68%
    05:00 +18°C° 0 mm 1 m/S 711 mmHg 69%
    06:00 +16°C° 0 mm 1 m/S 711 mmHg 70%
    07:00 +18°C° 0 mm 2 m/S 712 mmHg 66%
    08:00 +19°C° 0 mm 2 m/S 713 mmHg 62%
    09:00 +21°C° 0 mm 2 m/S 714 mmHg 58%
    10:00 +24°C° 0 mm 2 m/S 714 mmHg 53%
    11:00 +25°C° 0 mm 2 m/S 714 mmHg 48%
    12:00 +27°C° 0 mm 3 m/S 714 mmHg 43%
    13:00 +27°C° 0 mm 3 m/S 713 mmHg 43%
    14:00 +27°C° 0 mm 3 m/S 713 mmHg 44%
    15:00 +27°C° 0 mm 4 m/S 712 mmHg 44%
    16:00 +25°C° 0 mm 4 m/S 712 mmHg 50%
    17:00 +23°C° 0 mm 4 m/S 712 mmHg 56%
    18:00 +21°C° 0 mm 4 m/S 712 mmHg 61%
    19:00 +20°C° 0 mm 4 m/S 712 mmHg 66%
    20:00 +19°C° 0 mm 4 m/S 713 mmHg 71%
    21:00 +18°C° 0 mm 4 m/S 713 mmHg 76%
    22:00 +18°C° 0 mm 4 m/S 713 mmHg 78%
    23:00 +17°C° 0 mm 4 m/S 713 mmHg 81%

    25 Juli, Mittwoch

    Zeit Temperatur Niederschläge Wind Luftdruck Luftfeuchtigkeit
    00:00 +17°C° 0 mm 3 m/S 713 mmHg 83%
    01:00 +17°C° 0 mm 3 m/S 713 mmHg 84%
    02:00 +16°C° 0 mm 3 m/S 712 mmHg 85%
    03:00 +16°C° 0 mm 3 m/S 712 mmHg 86%
    04:00 +16°C° 0 mm 3 m/S 712 mmHg 87%
    05:00 +15°C° 0 mm 2 m/S 712 mmHg 88%
    06:00 +15°C° 0 mm 2 m/S 712 mmHg 89%
    07:00 +17°C° 0 mm 2 m/S 713 mmHg 82%
    08:00 +18°C° 0 mm 3 m/S 714 mmHg 74%
    09:00 +20°C° 0 mm 3 m/S 714 mmHg 67%
    10:00 +23°C° 0 mm 2 m/S 714 mmHg 60%
    11:00 +24°C° 0 mm 2 m/S 714 mmHg 54%
    12:00 +26°C° 0 mm 2 m/S 714 mmHg 47%
    13:00 +27°C° 0 mm 2 m/S 713 mmHg 45%
    14:00 +27°C° 0 mm 1 m/S 713 mmHg 44%
    15:00 +27°C° 0 mm 1 m/S 712 mmHg 43%
    16:00 +26°C° 0 mm 1 m/S 712 mmHg 46%
    17:00 +25°C° 0 mm 2 m/S 712 mmHg 50%
    18:00 +24°C° 0 mm 2 m/S 712 mmHg 54%
    19:00 +21°C° 0 mm 2 m/S 712 mmHg 59%
    20:00 +20°C° 0 mm 3 m/S 712 mmHg 65%
    21:00 +19°C° 0 mm 3 m/S 713 mmHg 70%
    22:00 +18°C° 0 mm 3 m/S 712 mmHg 74%
    23:00 +18°C° 0 mm 3 m/S 712 mmHg 78%

    26 Juli, Donnerstag

    Zeit Temperatur Niederschläge Wind Luftdruck Luftfeuchtigkeit
    00:00 +17°C° 0 mm 2 m/S 712 mmHg 82%
    01:00 +17°C° 0 mm 2 m/S 712 mmHg 84%
    02:00 +16°C° 0 mm 2 m/S 712 mmHg 85%
    03:00 +16°C° 0 mm 2 m/S 711 mmHg 87%
    04:00 +16°C° 0 mm 2 m/S 711 mmHg 88%
    05:00 +15°C° 0 mm 1 m/S 711 mmHg 89%
    06:00 +15°C° 0 mm 1 m/S 711 mmHg 90%
    07:00 +18°C° 0 mm 1 m/S 712 mmHg 82%
    08:00 +18°C° 0 mm 2 m/S 712 mmHg 74%
    09:00 +20°C° 0 mm 2 m/S 713 mmHg 65%
    10:00 +23°C° 0 mm 2 m/S 713 mmHg 58%
    11:00 +25°C° 0 mm 2 m/S 712 mmHg 51%
    12:00 +27°C° 0 mm 2 m/S 712 mmHg 44%
    13:00 +27°C° 0 mm 2 m/S 712 mmHg 42%
    14:00 +28°C° 0 mm 1 m/S 711 mmHg 40%
    15:00 +29°C° 0 mm 1 m/S 711 mmHg 38%
    16:00 +27°C° 0 mm 1 m/S 710 mmHg 42%
    17:00 +25°C° 0 mm 1 m/S 710 mmHg 46%
    18:00 +24°C° 0 mm 1 m/S 710 mmHg 49%
    19:00 +23°C° 0 mm 1 m/S 710 mmHg 53%
    20:00 +21°C° 0 mm 2 m/S 711 mmHg 57%
    21:00 +20°C° 0 mm 2 m/S 711 mmHg 60%
    22:00 +19°C° 0 mm 2 m/S 711 mmHg 65%
    23:00 +19°C° 0 mm 2 m/S 711 mmHg 69%

    27 Juli, Freitag

    Zeit Temperatur Niederschläge Wind Luftdruck Luftfeuchtigkeit
    00:00 +18°C° 0 mm 2 m/S 710 mmHg 74%
    01:00 +17°C° 0 mm 2 m/S 710 mmHg 76%
    02:00 +18°C° 0 mm 1 m/S 710 mmHg 78%
    03:00 +18°C° 0 mm 1 m/S 710 mmHg 80%
    04:00 +16°C° 0 mm 1 m/S 710 mmHg 81%
    05:00 +16°C° 0 mm 1 m/S 710 mmHg 82%
    06:00 +16°C° 0 mm 1 m/S 710 mmHg 83%
    07:00 +19°C° 0 mm 1 m/S 710 mmHg 76%
    08:00 +20°C° 0 mm 1 m/S 711 mmHg 69%
    09:00 +22°C° 0 mm 1 m/S 712 mmHg 61%
    10:00 +24°C° 0 mm 1 m/S 711 mmHg 54%
    11:00 +26°C° 0 mm 1 m/S 711 mmHg 48%
    12:00 +28°C° 0 mm 1 m/S 711 mmHg 41%
    13:00 +29°C° 0 mm 1 m/S 711 mmHg 39%
    14:00 +29°C° 0 mm 1 m/S 710 mmHg 37%
    15:00 +29°C° 0 mm 1 m/S 710 mmHg 35%
    16:00 +28°C° 0 mm 1 m/S 709 mmHg 39%
    17:00 +26°C° 0 mm 1 m/S 709 mmHg 43%
    18:00 +24°C° 0 mm 1 m/S 709 mmHg 47%
    19:00 +23°C° 0 mm 1 m/S 709 mmHg 50%
    20:00 +21°C° 0 mm 2 m/S 710 mmHg 54%
    21:00 +20°C° 0 mm 2 m/S 710 mmHg 57%
    22:00 +20°C° 0 mm 2 m/S 710 mmHg 61%
    23:00 +19°C° 0 mm 2 m/S 710 mmHg 66%
    Mehr zeigen